Home   Weather   Virginia Beach   Past weeks

Flag for USA Past Weather in Virginia Beach, Virginia, USA — Yesterday and Last 2 Weeks

Now
79 °F

Partly sunny.


Feels Like: 82 °F
Forecast: 72 / 80 °F
Wind: 12 mph from Northeast

Location: Virginia Beach - Oceana

Current Time: Sep 29, 2016 at 11:22:05 AM

Latest Report: Sep 29, 2016 at 10:56 AM


Visibility: 10 mi

Pressure: 30.07 "Hg

Humidity: 82%

Dew Point: 73 °F

Location of Virginia BeachLocation

Past Weather in Virginia Beach — Graph

°F

Virginia Beach Temperature Yesterday

Maximum temperature yesterday: 78 °F (at 3:56 PM)
Minimum temperature yesterday: 64 °F (at 3:56 AM)
Average temperature yesterday: 72 °F

High & Low Weather Summary for the Past Weeks

 TemperatureHumidityPressure
High88 °F (Sep 14, 12:56 PM)100% (Sep 18, 5:56 AM)30.24 "Hg (Sep 18, 5:56 AM)
Low56 °F (Sep 26, 4:56 AM)48% (Sep 24, 12:56 PM)29.90 "Hg (Sep 27, 6:56 PM)
Average73 °F82%30.06 "Hg
* Reported Sep 14 9:56 AM — Sep 29 9:56 AM, Virginia Beach, Weather by CustomWeather, © 2016

Note: Actual official high and low records may vary slightly from our data, if they occured in-between our weather recording intervals... More about our weather records

Advertising

Virginia Beach Weather History for the Previous 24 Hours

Scroll right to see more
 ConditionsComfort  
Time TempWeatherWind HumidityBarometerVisibility
9:56 AM
Thu, Sep 29
78 °FBroken clouds.8 mph84%30.06 "Hg10 mi
8:56 AM77 °FMostly cloudy.8 mph88%30.06 "Hg10 mi
7:56 AM74 °FPartly sunny.6 mph97%30.04 "Hg10 mi
6:56 AM70 °FFog.3 mph97%30.03 "Hg3 mi
5:56 AM68 °FPassing clouds.No wind96%30.01 "Hg7 mi
4:56 AM68 °FPassing clouds.No wind96%30.00 "Hg10 mi
3:56 AM69 °FPassing clouds.No wind96%30.01 "Hg7 mi
2:56 AM69 °FPassing clouds.3 mph93%30.02 "Hg9 mi
1:56 AM70 °FPassing clouds.3 mph93%30.02 "Hg10 mi
12:56 AM73 °FPartly cloudy.No wind90%30.01 "Hg10 mi
11:56 PM
Wed, Sep 28
74 °FPassing clouds.5 mph85%30.01 "Hg10 mi
10:56 PM74 °FPassing clouds.9 mph85%30.01 "Hg10 mi
9:56 PM74 °FPartly cloudy.8 mph85%30.00 "Hg10 mi
8:56 PM74 °FPartly cloudy.7 mph88%30.01 "Hg10 mi
7:56 PM74 °FPartly cloudy.10 mph85%29.98 "Hg10 mi
6:56 PM74 °FPartly cloudy.7 mph88%29.97 "Hg10 mi
5:56 PM75 °FBroken clouds.8 mph82%29.97 "Hg10 mi
4:56 PM77 °FBroken clouds.13 mph74%29.96 "Hg10 mi
3:56 PM78 °FBroken clouds.12 mph74%29.96 "Hg10 mi
2:56 PM77 °FBroken clouds.12 mph77%29.98 "Hg10 mi
1:56 PM76 °FMostly cloudy.14 mph77%29.97 "Hg10 mi
12:56 PM75 °FMostly cloudy.12 mph79%29.98 "Hg10 mi
11:56 AM76 °FPartly sunny.9 mph77%29.98 "Hg10 mi
Weather by CustomWeather, © 2016

See weather overviewHow to use our weather pages